date,batt_volt,AirTemp_C,Solar_kW,RH,Manual_BP,StationID,WS_ms,PTemp,WS_15min_max,Prog_Sig,Solar_Raw,Bar_mbar,Solar_MJ,Max_WS_2min,Pressure_Raw,Rain_mm,WD_15min_ave,Max_AirTemp_1min,WindDir,WS_15min_med,WS_15min_ave,Elevation_Correction
2020-10-01T00:04:58Z,12.85656,16.6012,0.0,94.719,0,1156,0.2156,20.68999,9.1924,43690,0.0,1004.509,0.0,1.666,1002.708,0,275.514738123,16.7,281.308,0.3528,1.47291664107,1.80078
2020-10-01T00:20:01Z,12.86207,16.29653,0.0,95.46375,0,1156,0.196,19.9964,1.764,43690,0.0,1004.509,0.0,1.529,1002.708,0,277.946856844,16.36,277.5585,0.1568,0.217687573964,1.80078
2020-10-01T00:35:03Z,12.87021,16.71542,0.0,92.94557,0,1156,10.5252,19.46774,12.0736,43690,0.0,1004.509,0.0,11.35,1002.708,0,273.349995448,16.75,270.0957,2.9792,4.79736088107,1.80078
2020-10-01T00:49:59Z,12.87188,17.66999,0.0,85.40441,0,1156,15.5036,19.23278,15.1116,43690,0.0,1004.509,0.0,12.03,1002.708,0,260.356359023,17.7,248.367,10.7996,10.72598325,1.80078
2020-10-01T01:05:02Z,12.87746,17.46698,0.0,85.70945,0,1156,11.172,19.12885,15.5036,43690,0.0,1005.817,0.0,13.78,1004.016,0,261.305868691,17.6,258.3217,12.5832,12.5900426036,1.80078
2020-10-01T01:19:59Z,12.87195,17.29766,0.0,86.6915,0,1156,10.388,19.07689,13.3084,43690,0.0,1005.817,0.0,11.31,1004.016,0,260.587064158,17.47,257.1195,11.2504,11.180516631,1.80078
2020-10-01T01:35:02Z,12.87195,17.22994,0.0,86.82696,0,1156,10.976,18.99781,13.1516,43690,0.0,1005.817,0.0,11.58,1004.016,0,257.604037772,17.4,255.5808,10.7016,10.8089940059,1.80078
2020-10-01T01:50:02Z,12.87746,17.09448,0.0,86.89468,0,1156,11.662,18.89389,12.1128,43690,0.0,1005.817,0.0,11.54,1004.016,0,256.789271941,17.13,256.5185,10.4468,10.4419288876,1.80078
2020-10-01T02:05:04Z,12.87746,16.24789,0.0,91.70335,0,1156,6.879599,18.79222,12.0736,43690,0.0,1006.63,0.0,7.605001,1004.829,0,266.918276091,16.48,272.5794,9.8588,9.33296320118,1.80078
2020-10-01T02:20:04Z,12.88298,16.01084,0.0,92.787,0,1156,0.098,18.58437,7.35,43690,0.0,1006.63,0.0,0.078,1004.829,0,285.142194728,16.15,284.1683,0.1176,1.18005917101,1.80078
2020-10-01T02:35:01Z,12.88849,15.90925,0.0,92.787,0,1156,0.0196,18.32682,0.196,43690,0.0,1006.63,0.0,0.137,1004.829,0,286.400353764,15.94,294.5791,0.0392,0.04165,1.80078
2020-10-01T02:50:02Z,12.88849,15.73993,0.0,92.75314,0,1156,0.0392,18.04667,0.1372,43690,0.0,1006.63,0.0,0.137,1004.829,0,283.837666919,15.81,284.6011,0.0196,0.0378082840237,1.80078
2020-10-01T03:05:03Z,12.88849,15.90925,0.0,90.65358,0,1156,4.508,17.96985,7.3892,43690,0.0,1008.093,0.0,7.526001,1006.292,0,283.325891757,15.91,288.7365,0.1176,0.547756213018,1.80078
2020-10-01T03:20:04Z,12.87746,15.90925,0.0,90.8229,0,1156,0.4116,18.17319,9.290401,43690,0.0,1008.093,0.0,3.214,1006.292,0,277.107163462,15.91,280.5618,0.3724,1.22041893195,1.80078
2020-10-01T03:35:04Z,12.87746,15.90925,0.0,88.72334,0,1156,10.4468,18.32682,12.4656,43690,0.0,1008.093,0.0,10.64,1006.292,0,273.020228781,16.01,270.1751,8.0948,6.7658270645,1.80078
2020-10-01T03:50:04Z,12.87746,15.63834,0.0,89.70539,0,1156,0.49,18.43074,11.1132,43690,0.0,1008.093,0.0,0.529,1006.292,0,274.68080631,15.74,270.5838,8.231999,5.34882830059,1.80078
2020-10-01T04:05:05Z,12.88849,15.50288,0.0,89.77312,0,1156,0.2156,18.17319,7.3892,43690,0.0,1008.093,0.0,5.468,1006.292,0,272.953592409,15.5,279.4799,0.4312,1.10467454734,1.80078
2020-10-01T04:20:07Z,12.89401,15.26584,0.0,90.28107,0,1156,1.7444,17.84333,9.564799,43690,0.0,1008.093,0.0,4.332,1006.292,0,273.588926178,15.37,279.2394,1.078,2.06141201006,1.80078
2020-10-01T04:35:08Z,12.89401,15.23322,0.0,90.72335,0,1156,0.0784,17.58804,3.0968,43690,0.0,1008.093,0.0,0.274,1006.292,0,278.338159181,15.33,293.1912,0.1372,0.197507692308,1.80078
2020-10-01T04:50:07Z,12.90027,14.99981,0.0,91.16964,0,1156,0.0392,17.33727,0.3332,43690,0.0,1008.093,0.0,0.235,1006.292,0,279.438472822,15.14,280.9234,0.0784,0.0961443786982,1.80078
2020-10-01T05:05:07Z,12.90298,15.00967,0.0,91.55858,0,1156,0.0588,17.18589,0.392,43690,0.0,1009.023,0.0,0.216,1007.222,0,281.24733451,15.14,278.1359,0.098,0.0975360946746,1.80078
2020-10-01T05:20:07Z,12.90901,14.94523,0.0,92.34322,0,1156,0.098,17.06163,0.196,43690,0.0,1009.023,0.0,0.078,1007.222,0,279.874385439,15.05,277.864,0.0392,0.0460426035503,1.80078
2020-10-01T05:35:06Z,12.9094,14.91181,0.0,93.08923,0,1156,0.9604,16.91027,2.6068,43690,0.0,1009.023,0.0,2.254,1007.222,0,280.114600541,14.88,283.35,0.0,0.300610648521,1.80078
2020-10-01T05:50:04Z,12.9094,14.53928,0.0,93.52978,0,1156,0.0,16.6866,2.6068,43690,0.0,1009.023,0.0,1.196,1007.222,0,289.306908093,14.74,281.2099,0.8428,0.97895619645,1.80078
2020-10-01T06:05:05Z,12.91492,14.16665,0.0,94.13954,0,1156,0.7644,16.43808,1.2348,43690,0.0,1009.565,0.0,1.039,1007.764,0,291.497829437,14.3,298.6472,0.7644,0.758321503165,1.80078
2020-10-01T06:20:05Z,12.92595,14.03115,0.0,94.71542,0,1156,0.8035999,16.16697,1.2936,43690,0.0,1009.565,0.0,1.137,1007.764,0,290.969115512,14.17,290.0609,0.8035999,0.831666249112,1.80078
2020-10-01T06:35:05Z,12.92595,14.0989,0.0,95.12192,0,1156,0.9604,15.92071,1.1564,43690,0.0,1009.565,0.0,0.9210001,1007.764,0,296.362588971,14.23,282.9657,0.7644,0.77820116568,1.80078
2020-10-01T06:50:05Z,12.92595,14.13277,0.0,95.0203,0,1156,0.9211999,15.79872,1.2544,43690,0.0,1009.565,0.0,1.117,1007.764,0,300.016778715,14.23,288.2089,0.7056,0.676142,1.80078
2020-10-01T07:05:06Z,12.93147,13.89565,0.0,95.12192,0,1156,1.1564,15.72642,1.2544,43690,0.0,1009.077,0.0,1.254,1007.276,0,286.268699046,14.07,291.8888,0.8624,0.823547911834,1.80078
2020-10-01T07:20:06Z,12.93147,14.06502,0.0,95.08804,0,1156,0.0196,15.65187,2.7636,43690,0.0,1009.077,0.0,0.078,1007.276,0,266.990981293,14.27,248.4518,0.686,0.637521885799,1.80078
2020-10-01T07:35:06Z,12.93147,14.16665,0.0,94.47829,0,1156,0.0,15.60442,0.2156,43690,0.0,1009.077,0.0,0.02,1007.276,0,263.955482279,14.23,268.7032,0.0,0.00823431952663,1.80078
2020-10-01T07:50:11Z,12.93699,14.23446,0.0,93.49601,0,1156,1.47,15.57957,2.45,43690,0.0,1009.077,0.0,2.45,1007.276,0,267.008615379,14.27,261.9931,0.0,0.453018867925,1.80078
2020-10-01T08:05:10Z,12.93699,13.89569,0.0,93.49598,0,1156,1.078,15.50502,1.5876,43690,0.0,1010.053,0.0,1.333,1008.252,0,257.595479474,14.03,261.055,1.078,1.08417695091,1.80078
2020-10-01T08:20:09Z,12.93699,14.20076,0.0,91.36215,0,1156,0.7056,15.36042,2.254,43690,0.0,1010.053,0.0,1.254,1008.252,0,250.724174784,14.23,249.5592,0.8624,0.927694644379,1.80078
2020-10-01T08:35:08Z,12.94284,14.16788,0.0,89.22965,0,1156,2.842,15.19098,2.8224,43690,0.0,1010.053,0.0,2.372,1008.252,0,261.321270741,14.3,266.5446,1.47,1.51291123077,1.80078
2020-10-01T08:50:13Z,12.94289,14.50793,0.0,86.72486,0,1156,0.882,15.14128,2.842,43690,0.0,1010.053,0.0,1.274,1008.252,0,239.959108931,14.74,241.44,0.882,1.00617174118,1.80078
2020-10-01T09:05:13Z,12.94846,14.16848,0.0,87.63844,0,1156,1.96,15.04413,2.45,43690,0.0,1010.961,0.0,1.666,1009.161,0,251.921498214,14.24,262.5789,0.9604,1.06524258343,1.80078
2020-10-01T09:20:13Z,12.94829,13.72754,0.0,88.6877,0,1156,1.2152,14.94924,2.6264,43690,0.0,1010.961,0.0,1.392,1009.161,0,254.877774391,13.76,267.2183,1.078,1.19049702544,1.80078
2020-10-01T09:35:12Z,12.95363,13.76286,0.0,87.47052,0,1156,0.7252,14.80465,2.0776,43690,0.0,1010.961,0.0,1.725,1009.161,0,258.598197014,13.83,250.2683,1.0192,1.13390057456,1.80078
2020-10-01T09:50:10Z,12.96096,13.9339,0.0,86.72787,0,1156,0.0196,14.66005,2.7832,43690,0.0,1010.961,0.0,0.157,1009.161,0,264.411621182,13.93,276.9993,1.2544,1.16069112012,1.80078
2020-10-01T10:05:10Z,12.95079,13.90509,0.0004821122,87.17649,0,1156,0.0,14.61261,0.3332,43690,0.03374786,1011.35,2.410561e-06,0.118,1009.549,0,270.502733304,13.94,273.417,0.0196,0.0418674556213,1.80078
2020-10-01T10:20:10Z,12.95157,12.96032,0.006267454,90.70684,0,1156,0.0,14.51546,1.372,43690,0.4387218,1011.35,3.133727e-05,0.0,1009.549,0,272.419382495,12.96,327.6387,0.0196,0.387824843787,1.80078
2020-10-01T10:35:10Z,12.96334,12.32053,0.01928366,92.74695,0,1156,0.882,14.32342,0.9211999,43690,1.349856,1011.35,9.641827e-05,0.9210001,1009.549,0,109.897777239,12.46,102.2761,0.5292,0.450684014793,1.80078
2020-10-01T10:50:10Z,12.96897,12.05014,0.04242522,93.4937,0,1156,0.0,14.13365,0.9799999,43690,2.969765,1011.35,0.0002121261,0.784,1009.549,0,107.160077911,12.22,102.879,0.6076,0.542537272189,1.80078
2020-10-01T11:05:11Z,12.96345,12.82955,0.08871048,92.64655,0,1156,0.0,14.13365,0.9408,43690,6.209734,1011.526,0.0004435524,0.0,1009.726,0,106.257360031,12.86,92.96645,0.6076,0.451495850888,1.80078
2020-10-01T11:20:11Z,12.95793,13.13453,0.07376059,90.78278,0,1156,0.0,14.39572,0.0196,43690,5.163241,1011.526,0.000368803,0.0,1009.726,0,123.040315866,13.13,122.1989,0.0,0.000115976331361,1.80078
2020-10-01T11:35:11Z,12.96294,13.50392,0.1253437,87.89687,0,1156,0.0,14.58776,0.5096,43690,8.774055,1011.526,0.0006267182,0.0,1009.726,0,150.399037862,13.54,106.385,0.0,0.00811834319527,1.80078
2020-10-01T11:50:10Z,12.94885,14.34029,0.2338255,83.91577,0,1156,0.0,14.87694,0.196,43690,16.36778,1011.526,0.001169127,0.0,1009.726,0,184.607037957,14.17,213.4015,0.0,0.00139171597633,1.80078
2020-10-01T12:05:12Z,12.9317,15.75977,0.2843952,77.64362,0,1156,0.0,15.67672,0.9604,43690,19.90767,1012.356,0.001421976,0.0,1010.556,0,214.476381054,15.76,209.925,0.0,0.0224994076923,1.80078
2020-10-01T12:20:12Z,12.90391,16.43634,0.3547594,72.5949,0,1156,0.0,16.86056,1.0584,43690,24.83316,1012.356,0.001773797,0.0,1010.556,0,229.197287295,16.5,208.286,0.0,0.038156212426,1.80078
2020-10-01T12:35:13Z,12.885,16.62943,0.3643942,72.24317,0,1156,0.0,17.96985,0.2156,43690,25.5076,1012.356,0.001821971,0.137,1010.556,0,201.72503923,16.56,206.0603,0.0,0.0139171597633,1.80078
2020-10-01T12:50:13Z,12.86098,16.99319,0.4172981,68.50697,0,1156,0.0,18.97297,0.9408,43690,29.21087,1012.356,0.00208649,0.0,1010.556,0,171.053783299,17.03,224.9267,0.0,0.0997396449704,1.80078
2020-10-01T13:05:13Z,12.85434,17.36129,0.4876298,69.44983,0,1156,0.392,19.94218,0.6272,43690,34.13408,1012.157,0.002438149,0.608,1010.356,0,120.879907523,17.5,120.2803,0.0,0.106582248521,1.80078
2020-10-01T13:20:14Z,12.82363,17.71889,0.4923918,69.6012,0,1156,0.0,20.90688,0.6664,43690,34.46742,1012.157,0.002461959,0.51,1010.356,0,124.45814499,17.85,104.6262,0.0,0.1104,1.80078
2020-10-01T13:35:16Z,12.81246,18.53082,0.517817,70.14219,0,1156,0.392,21.80832,1.8816,43690,36.24719,1012.157,0.002589085,1.117,1010.356,0,115.493915978,18.77,131.0159,0.0,0.222176315132,1.80078
2020-10-01T13:50:15Z,12.80638,18.25645,0.5862102,73.2183,0,1156,0.6076,22.55839,1.9208,43690,41.03471,1012.157,0.002931051,1.842,1010.356,0,108.985012671,18.12,110.3149,0.5096,0.576750290533,1.80078
2020-10-01T14:05:14Z,12.80411,18.28319,0.3270639,70.70475,0,1156,0.0,23.01024,1.274,43690,22.89447,1012.234,0.001635319,0.0,1010.433,0,106.7173429,18.28,0.8651094,0.49,0.383765678698,1.80078
2020-10-01T14:20:15Z,12.79166,18.34219,0.6083676,68.93447,0,1156,0.7448,23.60894,0.9604,43690,42.58574,1012.234,0.003041838,0.96,1010.433,0,219.406930485,18.21,229.6523,0.3136,0.348258533537,1.80078
2020-10-01T14:35:17Z,12.78057,18.61255,0.6684296,70.11847,0,1156,0.5096,24.3929,0.9408,43690,46.79007,1012.234,0.003342148,0.706,1010.433,0,225.570034242,19.09,233.4711,0.2352,0.282418181169,1.80078
2020-10-01T14:50:15Z,12.77369,18.1322,0.570124,68.38485,0,1156,0.6664,24.92383,1.2152,43690,39.90868,1012.234,0.00285062,0.9210001,1010.433,0,229.498417452,18.23,230.754,0.6664,0.665820108284,1.80078
2020-10-01T15:05:15Z,12.76571,19.47388,0.6861691,63.39821,0,1156,0.6076,25.34179,1.0192,43690,48.03184,1012.644,0.003430846,1.019,1010.844,0,222.737091327,19.68,228.2583,0.2744,0.35556563865,1.80078
2020-10-01T15:20:14Z,12.75973,19.26933,0.6991702,67.05012,0,1156,0.6664,25.85464,1.0192,43690,48.94191,1012.644,0.003495851,0.725,1010.844,0,227.62824566,20.01,239.2529,0.0588,0.240998814201,1.80078
2020-10-01T15:35:14Z,12.75972,20.92694,0.7102453,64.17458,0,1156,1.0976,26.3449,2.0188,43690,49.71717,1012.644,0.003551226,1.215,1010.844,0,247.727875085,20.93,271.3661,0.8231999,0.861472173964,1.80078
2020-10-01T15:50:16Z,12.75972,19.87823,0.7145354,66.71178,0,1156,1.1956,26.68379,2.254,43690,50.01748,1012.644,0.003572677,1.842,1010.844,0,277.98000784,20.01,290.0048,1.0192,1.06779406686,1.80078
2020-10-01T16:05:17Z,12.76522,20.55482,0.7164553,64.2084,0,1156,0.9604,26.4669,2.352,43690,50.15187,1012.856,0.003582276,1.784,1011.056,0,279.689796078,20.55,273.9361,1.1956,1.1826106426,1.80078
2020-10-01T16:20:18Z,12.75972,21.63736,0.7150218,60.82545,0,1156,0.8624,26.5279,1.274,43690,50.05152,1012.856,0.003575109,1.254,1011.056,0,273.627801484,21.71,289.068,0.9408,0.93442128284,1.80078
2020-10-01T16:35:17Z,12.75421,21.33289,0.708699,64.27606,0,1156,1.2936,26.65216,1.3916,43690,49.60892,1012.856,0.003543494,1.274,1011.056,0,278.317809984,21.33,260.0051,0.882,0.906007084024,1.80078
2020-10-01T16:50:17Z,12.75421,22.04332,0.7087246,58.6942,0,1156,1.2152,26.80805,1.3524,43690,49.61072,1012.856,0.003543622,1.313,1011.056,0,265.173148567,22.25,262.1908,0.9408,0.880608269822,1.80078
2020-10-01T17:05:17Z,12.75421,21.46821,0.6965671,58.5927,0,1156,0.8231999,27.15145,1.4112,43690,48.7597,1011.963,0.003482835,1.352,1010.163,0,266.173221509,21.67,286.2098,0.9408,0.816473360355,1.80078
2020-10-01T17:20:16Z,12.75421,21.60353,0.6758738,58.86334,0,1156,0.8624,27.24634,1.4112,43690,47.31116,1011.963,0.003379369,1.235,1010.163,0,287.12168175,21.67,291.6621,0.8035999,0.822272171598,1.80078
2020-10-01T17:35:16Z,12.7487,21.46821,0.6446009,61.26524,0,1156,0.8035999,27.27797,1.3524,43690,45.12206,1011.963,0.003223005,1.254,1010.163,0,281.305508905,21.47,289.9327,0.8428,0.885479274556,1.80078
2020-10-01T17:50:19Z,12.74319,21.73885,0.6219473,65.22329,0,1156,0.6076,27.43612,1.5288,43690,43.53631,1011.963,0.003109736,1.274,1010.163,0,276.563853878,21.74,246.4824,0.882,0.916982257595,1.80078
2020-10-01T18:05:18Z,12.74241,22.17493,0.5959411,57.81119,0,1156,0.7644,27.78404,1.4308,43690,41.71588,1012.281,0.002979706,1.372,1010.48,0,271.81277639,22.28,238.2538,1.0192,0.928042591124,1.80078
2020-10-01T18:20:17Z,12.74009,22.26136,0.5646362,63.00538,0,1156,0.7252,28.13649,1.3328,43690,39.52454,1012.281,0.002823181,1.294,1010.48,0,260.344077548,22.26,262.1838,0.8428,0.795808684472,1.80078
2020-10-01T18:35:18Z,12.73893,21.44757,0.5333469,63.03702,0,1156,0.8624,28.36467,1.3132,43690,37.33428,1012.281,0.002666734,0.98,1010.48,0,257.782399035,21.58,253.9391,0.8231999,0.860196426036,1.80078
2020-10-01T18:50:18Z,12.73337,21.04162,0.4982076,66.11434,0,1156,0.9799999,28.52733,1.274,43690,34.87453,1012.281,0.002491038,1.215,1010.48,0,248.80271942,21.18,243.0136,0.8428,0.868546721893,1.80078
2020-10-01T19:05:20Z,12.73888,21.65035,0.4601801,63.27362,0,1156,1.0192,28.52733,1.372,43690,32.21261,1012.44,0.002300901,1.294,1010.639,0,259.42042286,22.26,254.3227,0.9799999,0.902179868639,1.80078
2020-10-01T19:20:19Z,12.74439,19.04636,0.42119,68.41396,0,1156,0.098,28.17038,1.1956,43690,29.4833,1012.44,0.00210595,0.118,1010.639,0,215.227198462,19.11,229.9277,0.0,0.188229585207,1.80078
2020-10-01T19:35:19Z,12.75156,19.42668,0.3850945,67.84857,0,1156,0.0,27.531,1.0388,43690,26.95662,1012.44,0.001925473,0.9410001,1010.639,0,220.816911121,19.43,244.2724,0.0,0.0982319508876,1.80078
2020-10-01T19:50:20Z,12.76515,20.85883,0.3557722,63.12538,0,1156,0.6468,26.86905,1.2936,43690,24.90405,1012.44,0.001778861,0.647,1010.639,0,270.817369558,20.86,284.5504,0.5488,0.507976322485,1.80078
2020-10-01T20:05:20Z,12.77624,20.65628,0.3510236,65.1556,0,1156,1.0976,26.22064,1.47,43690,24.57165,1012.612,0.001755118,1.47,1010.812,0,255.149285157,20.66,239.4448,0.4508,0.512731356213,1.80078
2020-10-01T20:20:21Z,12.77624,19.94586,0.2412425,64.98645,0,1156,0.0,25.70327,1.3916,43690,16.88697,1012.612,0.001206212,0.608,1010.812,0,247.343631342,20.25,267.6671,0.6272,0.578489933136,1.80078
2020-10-01T20:35:22Z,12.78175,18.43037,0.1719034,72.60659,0,1156,0.0,25.13168,1.4504,43690,12.03324,1012.612,0.0008595167,1.45,1010.812,0,236.978583219,18.5,221.7688,0.4508,0.489999992899,1.80078
2020-10-01T20:50:23Z,12.79638,18.27196,0.07800656,72.95839,0,1156,0.9211999,24.3048,1.6268,43690,5.460459,1012.612,0.0003900328,1.607,1010.812,0,240.140548853,18.41,243.4814,0.7448,0.658281646746,1.80078
2020-10-01T21:05:23Z,12.81912,17.05578,0.0592401,80.33833,0,1156,0.9015999,23.43724,1.3328,43690,4.146807,1012.784,0.0002962005,1.0,1010.983,0,240.098281151,17.22,256.3446,0.7448,0.7285633,1.80078
2020-10-01T21:20:24Z,12.82624,16.72553,0.02841929,80.68834,0,1156,1.1368,22.58776,1.274,43690,1.98935,1012.784,0.0001420964,1.196,1010.983,0,254.393796034,16.79,263.3743,0.7644,0.782028386391,1.80078
2020-10-01T21:35:25Z,12.83987,16.3971,0.03130948,82.76765,0,1156,1.3132,21.6434,1.6072,43690,2.191664,1012.784,0.0001565474,1.548,1010.983,0,261.875457441,16.5,253.8073,0.9015999,0.973273355621,1.80078
2020-10-01T21:50:24Z,12.84553,16.12725,0.009152597,83.78466,0,1156,1.2544,20.77133,1.568,43690,0.6406818,1012.784,4.576299e-05,1.49,1010.983,0,262.841007991,16.19,263.7141,1.2936,1.24452846277,1.80078
2020-10-01T22:05:23Z,12.86207,15.78875,0.001927315,85.07106,0,1156,0.5096,19.9693,1.5092,43690,0.134912,1013.69,9.636575e-06,0.9210001,1011.889,0,270.850893326,15.82,313.7555,1.0388,0.834310824204,1.80078
2020-10-01T22:20:23Z,12.8876,15.29619,0.0,86.31353,0,1156,0.0,19.15371,0.7644,43690,0.0,1013.69,0.0,0.0,1011.889,0,272.848033281,15.4,257.56,0.0,0.0286461538462,1.80078
2020-10-01T22:35:23Z,12.8995,14.92711,0.0,88.01205,0,1156,0.9015999,18.37878,1.1172,43690,0.0,1013.69,0.0,0.627,1011.889,0,251.179492781,15.03,244.9051,0.0,0.120221654777,1.80078
2020-10-01T22:50:23Z,12.90504,14.96106,0.0,88.14765,0,1156,0.0,17.74167,1.764,43690,0.0,1013.69,0.0,0.8620001,1011.889,0,256.989006421,14.96,277.0034,0.5782,0.547166659615,1.80078
2020-10-01T23:05:24Z,12.91142,14.4576,0.0,88.96774,0,1156,0.0,17.31241,0.9211999,43690,0.0,1013.701,0.0,0.0,1011.9,0,301.758726193,14.63,303.4521,0.0,0.132951048252,1.80078
2020-10-01T23:20:25Z,12.92562,13.92835,0.0,91.39365,0,1156,0.0,16.91027,0.0,43690,0.0,1013.701,0.0,0.0,1011.9,0,325.099540549,14.06,84.08215,0.0,0.0,1.80078
2020-10-01T23:35:26Z,12.93147,13.55687,0.0,92.54736,0,1156,0.0,16.53749,0.9604,43690,0.0,1013.701,0.0,0.0,1011.9,0,95.5571994365,13.62,87.83598,0.5096,0.406265074556,1.80078
2020-10-01T23:50:28Z,12.94251,13.42139,0.0,92.51352,0,1156,0.0,16.19182,0.9211999,43690,0.0,1013.701,0.0,0.274,1011.9,0,103.037018808,13.42,71.98608,0.0,0.0694698213018,1.80078
2020-10-02T00:05:28Z,12.94251,13.18427,0.0,93.05553,0,1156,0.7056,15.89586,0.9211999,43690,0.0,1014.28,0.0,0.49,1012.48,0,105.380625815,13.18,98.53892,0.0,0.284373959763,1.80078
2020-10-02T00:20:29Z,12.94251,13.18427,0.0,93.36041,0,1156,0.0,15.70157,0.9408,43690,0.0,1014.28,0.0,0.8430001,1012.48,0,102.270349543,13.18,107.3658,0.6272,0.486868629586,1.80078
2020-10-02T00:35:30Z,12.94251,12.81163,0.0,93.69916,0,1156,0.0,15.52987,0.0,43690,0.0,1014.28,0.0,0.0,1012.48,0,327.312082947,13.01,101.3048,0.0,0.0,1.80078
2020-10-02T00:50:26Z,12.94802,13.1171,0.0,94.24221,0,1156,0.0,15.36042,0.0,43690,0.0,1014.28,0.0,0.0,1012.48,0,72.1218392979,13.18,77.25422,0.0,0.0,1.80078
2020-10-02T01:05:29Z,12.94851,12.67863,0.0,94.2795,0,1156,0.0,15.26327,0.0,43690,0.0,1015.271,0.0,0.0,1013.47,0,88.6965810806,12.95,109.2951,0.0,0.0,1.80078
2020-10-02T01:20:29Z,12.94838,12.61115,0.0,94.99141,0,1156,0.0,15.09383,0.9211999,43690,0.0,1015.271,0.0,0.9210001,1013.47,0,98.9857776601,12.65,102.7533,0.5684,0.383765671598,1.80078
2020-10-02T01:35:28Z,12.95391,12.43951,0.0,94.98734,0,1156,0.3332,14.94924,0.9408,43690,0.0,1015.271,0.0,0.882,1013.47,0,93.2228852793,12.68,70.66394,0.7056,0.562333316667,1.80078
2020-10-02T01:50:29Z,12.95407,12.47464,0.0,95.1251,0,1156,0.8428,14.82724,1.0192,43690,0.0,1015.271,0.0,0.9410001,1013.47,0,87.4896208648,12.61,84.80836,0.6468,0.452646363768,1.80078
2020-10-02T02:05:29Z,12.94898,12.84807,0.0,95.0249,0,1156,0.1176,14.75494,0.9211999,43690,0.0,1014.643,0.0,0.078,1012.843,0,114.185694852,12.95,127.2385,0.6468,0.448132531953,1.80078
2020-10-02T02:20:29Z,12.94305,13.8337,0.0,92.28634,0,1156,0.0,14.7798,0.9015999,43690,0.0,1014.643,0.0,0.02,1012.843,0,159.350199936,13.9,237.6542,0.0,0.110061537278,1.80078
2020-10-02T02:35:29Z,12.93772,13.42532,0.0,91.60562,0,1156,0.784,14.87694,0.9211999,43690,0.0,1014.643,0.0,0.9210001,1012.843,0,164.287216834,13.43,101.2642,0.0,0.142418931361,1.80078
2020-10-02T02:50:29Z,12.94253,13.08471,0.0,92.61875,0,1156,0.6468,14.89953,0.9995999,43690,0.0,1014.643,0.0,0.7640001,1012.843,0,102.808666425,13.12,102.1987,0.7252,0.568747911834,1.80078
2020-10-02T03:05:29Z,12.943,12.81298,0.0,93.49827,0,1156,0.9408,14.85209,1.0584,43690,0.0,1015.593,0.0,1.039,1013.792,0,99.857723584,12.81,97.7477,0.8231999,0.800700559763,1.80078
2020-10-02T03:20:29Z,12.94278,12.44217,0.0,93.80644,0,1156,0.294,14.75494,1.0584,43690,0.0,1015.593,0.0,0.98,1013.792,0,105.034507444,12.54,107.9496,0.8624,0.842568009467,1.80078
2020-10-02T03:35:29Z,12.94891,13.25633,0.0,94.45206,0,1156,0.0588,14.66005,0.9015999,43690,0.0,1015.593,0.0,0.039,1013.792,0,114.524907219,13.15,231.5383,0.0784,0.317195262722,1.80078
2020-10-02T03:50:29Z,12.95023,12.54973,0.0,93.91867,0,1156,0.588,14.6352,0.8428,43690,0.0,1015.593,0.0,0.8430001,1013.792,0,122.881808925,12.72,90.64168,0.0,0.228821297633,1.80078
2020-10-02T04:05:30Z,12.951,12.48269,0.0,93.95384,0,1156,0.6664,14.6352,0.8624,43690,0.0,1015.035,0.0,0.392,1013.234,0,102.137608642,12.82,124.9708,0.0,0.238215382249,1.80078
2020-10-02T04:20:30Z,12.94035,12.92809,0.0,94.57254,0,1156,0.0,14.68264,0.9015999,43690,0.0,1015.035,0.0,0.118,1013.234,0,111.213696031,13.13,106.2652,0.0,0.276951473964,1.80078
2020-10-02T04:35:30Z,12.94429,12.8856,0.0,94.15061,0,1156,0.882,14.82724,0.8624,43690,0.0,1015.035,0.0,0.608,1013.234,0,131.762471467,13.02,99.82539,0.0,0.145086389941,1.80078
2020-10-02T04:50:30Z,12.94818,12.54157,0.0,94.51385,0,1156,0.8035999,14.85209,0.9799999,43690,0.0,1015.035,0.0,0.98,1013.234,0,98.8456714411,12.75,100.4648,0.8035999,0.782144347929,1.80078
2020-10-02T05:05:35Z,12.94835,12.81227,0.0,95.42794,0,1156,0.8624,14.82724,1.0192,43690,0.0,1015.112,0.0,1.019,1013.311,0,98.9178829927,12.88,101.0174,0.8428,0.841301141765,1.80078
2020-10-02T05:20:34Z,12.94847,12.88007,0.0,95.73291,0,1156,0.8624,14.85209,0.9995999,43690,0.0,1015.112,0.0,0.96,1013.311,0,102.906463314,13.02,106.5735,0.8428,0.774837839053,1.80078
2020-10-02T05:35:33Z,12.94296,13.62585,0.0,94.95468,0,1156,0.0,14.92439,0.9604,43690,0.0,1015.112,0.0,0.0,1013.311,0,130.892836782,13.73,53.03471,0.0,0.244478101775,1.80078
2020-10-02T05:50:31Z,12.94256,13.32066,0.0,94.61537,0,1156,0.0392,14.97183,1.0192,43690,0.0,1015.112,0.0,0.196,1013.311,0,104.366255753,13.35,103.0623,0.0,0.262222476923,1.80078
2020-10-02T06:05:32Z,12.93755,13.66105,0.0,94.5505,0,1156,1.0584,15.19098,1.568,43690,0.0,1015.044,0.0,1.313,1013.243,0,102.403416986,13.7,101.7666,0.784,0.674286384615,1.80078
2020-10-02T06:20:32Z,12.93198,13.99828,0.0,94.2768,0,1156,0.6664,15.50502,1.4308,43690,0.0,1015.044,0.0,1.078,1013.243,0,103.047264763,14.0,101.427,0.9015999,0.898236663314,1.80078
2020-10-02T06:35:36Z,12.92597,14.1667,0.0,94.1735,0,1156,0.8428,15.77386,1.0976,43690,0.0,1015.044,0.0,0.96,1013.243,0,96.8477661789,14.17,84.63724,0.7252,0.748143514118,1.80078
2020-10-02T06:50:35Z,12.92045,13.99731,0.0,94.27511,0,1156,0.6272,16.06757,1.1368,43690,0.0,1015.044,0.0,1.137,1013.243,0,92.9143333524,14.13,111.3825,0.8035999,0.771822456213,1.80078
2020-10-02T07:05:33Z,12.92045,14.4377,0.0,94.61386,0,1156,0.7448,16.24153,0.9995999,43690,0.0,1015.256,0.0,0.8620001,1013.455,0,100.331876835,14.37,105.2975,0.7644,0.675098207101,1.80078
2020-10-02T07:20:38Z,12.92596,14.26832,0.0,94.44449,0,1156,0.784,16.38838,1.0584,43690,0.0,1015.256,0.0,1.019,1013.455,0,94.9244304172,14.44,99.69346,0.8231999,0.809249383529,1.80078
2020-10-02T07:35:38Z,12.91493,14.40382,0.0,94.30898,0,1156,0.9211999,16.51264,1.0976,43690,0.0,1015.256,0.0,1.098,1013.455,0,96.7405131296,14.44,115.8561,0.8428,0.833289910059,1.80078